Regional Weather Roundup
Issued by NWS

Home | Current Version | Previous Version | Text Only | Print | Product List | Glossary Off
Versions: 1 2 3 4 5 6 7 8 9 10 11 12 13 14 15 16 17 18 19 20 21 22 23 24 25 26 27 28 29 30 31 32 33 34 35 36 37 38 39 40 41 42 43 44 45 46 47 48 49 50

000
ASUS43 KBIS 011920
RWRND

NORTH DAKOTA REGIONAL WEATHER ROUNDUP
NATIONAL WEATHER SERVICE BISMARCK ND
200 PM CDT MON SEP 01 2014

NOTE: "FAIR" INDICATES FEW OR NO CLOUDS BELOW 12,000 FEET WITH NO
SIGNIFICANT WEATHER AND/OR OBSTRUCTIONS TO VISIBILITY.


NDZ001>003-009>011-017-012000-
NORTHWEST NORTH DAKOTA

CITY           SKY/WX    TMP DP  RH WIND       PRES   REMARKS
WILLISTON      PTSUNNY   71  42  35 W7        29.84S
MINOT          MOSUNNY   71  45  39 W15       29.79S
MINOT AFB      MOSUNNY   70  48  45 W14       29.78S
$$

NDZ018>021-031>035-040>046-012000-
SOUTHWEST NORTH DAKOTA

CITY           SKY/WX    TMP DP  RH WIND       PRES   REMARKS
BISMARCK       SUNNY     73  51  46 NW13      29.82S
DICKINSON      MOSUNNY   68  47  46 NW10      29.86S
GARRISON         N/A     67  48  50 NW10G20   29.82S
HETTINGER ARPT MOSUNNY   70  47  43 NW12G25   29.89S
$$

NDZ004>008-012>016-024-026-027-054-012000-
NORTHEAST NORTH DAKOTA

CITY           SKY/WX    TMP DP  RH WIND       PRES   REMARKS
GRAND FORKS    PTSUNNY   72  55  56 W8        29.69F THUNDER
GRND FRKS AFB  DRIZZLE   70  59  68 NW5       29.71S
DEVILS LAKE    CLOUDY    64  52  63 N9        29.73F
$$

NDZ022-023-025-028>030-036>039-047>053-012000-
SOUTHEAST NORTH DAKOTA

CITY           SKY/WX    TMP DP  RH WIND       PRES   REMARKS
FARGO          PTSUNNY   74  56  53 W7        29.73F
JAMESTOWN      MOSUNNY   72  56  57 W10       29.77S
$$




USA.gov is the U.S. government's official web portal to all federal, state and local government web resources and services.